Time,TemperatureF,DewpointF,PressureIn,WindDirection,WindDirectionDegrees,WindSpeedMPH,WindSpeedGustMPH,Humidity,HourlyPrecipIn,Conditions,Clouds,dailyrainin,SoftwareType,DateUTC
2013-04-29 00:02:00,53.5,51.8,29.89,SSW,205,0.0,16.0,94,0.00,,,0.00,Wunderground v.1.15,2013-04-29 07:02:00,
2013-04-29 00:08:00,53.5,51.8,29.89,WSW,242,0.0,16.0,94,0.00,,,0.00,Wunderground v.1.15,2013-04-29 07:08:00,
2013-04-29 00:13:00,53.4,51.7,29.89,WSW,244,1.0,16.0,94,0.00,,,0.00,Wunderground v.1.15,2013-04-29 07:13:00,
2013-04-29 00:19:00,53.4,51.7,29.89,WSW,241,1.0,16.0,94,0.00,,,0.00,Wunderground v.1.15,2013-04-29 07:19:00,
2013-04-29 00:25:00,53.4,51.7,29.90,WSW,250,1.0,16.0,94,0.00,,,0.00,Wunderground v.1.15,2013-04-29 07:25:00,
2013-04-29 00:31:00,53.4,51.7,29.90,SSW,203,0.0,16.0,94,0.00,,,0.00,Wunderground v.1.15,2013-04-29 07:31:00,
2013-04-29 00:37:00,53.3,51.6,29.89,South,180,0.0,16.0,94,0.00,,,0.00,Wunderground v.1.15,2013-04-29 07:37:00,
2013-04-29 00:43:00,53.4,52.0,29.89,SW,229,0.0,16.0,95,0.00,,,0.00,Wunderground v.1.15,2013-04-29 07:43:00,
2013-04-29 00:49:00,53.4,52.0,29.89,SSW,196,0.0,16.0,95,0.00,,,0.00,Wunderground v.1.15,2013-04-29 07:49:00,
2013-04-29 00:55:00,53.5,52.1,29.89,SSW,212,0.0,16.0,95,0.00,,,0.00,Wunderground v.1.15,2013-04-29 07:55:00,
2013-04-29 01:01:00,53.5,52.1,29.89,SSW,212,0.0,16.0,95,0.00,,,0.00,Wunderground v.1.15,2013-04-29 08:01:00,
2013-04-29 01:07:00,53.4,51.7,29.89,SSW,212,0.0,16.0,94,0.00,,,0.00,Wunderground v.1.15,2013-04-29 08:07:00,
2013-04-29 01:12:00,53.4,51.7,29.89,NW,306,0.0,16.0,94,0.00,,,0.00,Wunderground v.1.15,2013-04-29 08:12:00,
2013-04-29 01:17:00,53.3,51.6,29.89,NW,306,1.0,16.0,94,0.00,,,0.00,Wunderground v.1.15,2013-04-29 08:17:00,
2013-04-29 01:23:00,53.3,51.6,29.89,West,269,0.0,16.0,94,0.00,,,0.00,Wunderground v.1.15,2013-04-29 08:23:00,
2013-04-29 01:29:00,53.3,51.9,29.89,WSW,251,0.0,16.0,95,0.00,,,0.00,Wunderground v.1.15,2013-04-29 08:29:00,
2013-04-29 01:35:00,53.3,51.9,29.89,WSW,246,0.0,16.0,95,0.00,,,0.00,Wunderground v.1.15,2013-04-29 08:35:00,
2013-04-29 01:40:00,53.3,51.9,29.89,WSW,246,0.0,16.0,95,0.00,,,0.00,Wunderground v.1.15,2013-04-29 08:40:00,
2013-04-29 01:46:00,53.2,51.8,29.89,West,259,0.0,16.0,95,0.00,,,0.00,Wunderground v.1.15,2013-04-29 08:46:00,
2013-04-29 01:51:00,53.2,51.8,29.89,WSW,240,0.0,16.0,95,0.00,,,0.00,Wunderground v.1.15,2013-04-29 08:51:00,
2013-04-29 01:56:00,53.2,51.8,29.89,West,270,0.0,16.0,95,0.00,,,0.00,Wunderground v.1.15,2013-04-29 08:56:00,
2013-04-29 02:01:00,53.1,51.7,29.89,West,270,0.0,16.0,95,0.00,,,0.00,Wunderground v.1.15,2013-04-29 09:01:00,
2013-04-29 02:07:00,53.1,51.7,29.89,West,270,0.0,16.0,95,0.00,,,0.00,Wunderground v.1.15,2013-04-29 09:07:00,
2013-04-29 02:13:00,53.1,51.7,29.89,West,270,0.0,16.0,95,0.00,,,0.00,Wunderground v.1.15,2013-04-29 09:13:00,
2013-04-29 02:18:00,-999.9,-99.9,29.89,North,32767,-999.0,16.0,255,-99.99,,,0.00,Wunderground v.1.15,2013-04-29 09:18:00,
2013-04-29 02:24:00,-999.9,-99.9,29.89,North,32767,-999.0,16.0,255,-99.99,,,0.00,Wunderground v.1.15,2013-04-29 09:24:00,
2013-04-29 02:29:00,-999.9,-99.9,29.88,North,32767,-999.0,16.0,255,-99.99,,,0.00,Wunderground v.1.15,2013-04-29 09:29:00,
2013-04-29 02:35:00,-999.9,-99.9,29.88,North,32767,-999.0,16.0,255,-99.99,,,0.00,Wunderground v.1.15,2013-04-29 09:35:00,
2013-04-29 02:40:00,-999.9,-99.9,29.88,North,32767,-999.0,16.0,255,-99.99,,,0.00,Wunderground v.1.15,2013-04-29 09:40:00,
2013-04-29 02:45:00,-999.9,-99.9,29.88,North,32767,-999.0,16.0,255,-99.99,,,0.00,Wunderground v.1.15,2013-04-29 09:45:00,
2013-04-29 02:51:00,-999.9,-99.9,29.88,North,32767,-999.0,16.0,255,-99.99,,,0.00,Wunderground v.1.15,2013-04-29 09:51:00,
2013-04-29 02:56:00,-999.9,-99.9,29.88,North,32767,-999.0,16.0,255,-99.99,,,0.00,Wunderground v.1.15,2013-04-29 09:56:00,
2013-04-29 03:01:00,-999.9,-99.9,29.88,North,32767,-999.0,16.0,255,-99.99,,,0.00,Wunderground v.1.15,2013-04-29 10:01:00,
2013-04-29 03:07:00,-999.9,-99.9,29.87,North,32767,-999.0,16.0,255,-99.99,,,0.00,Wunderground v.1.15,2013-04-29 10:07:00,
2013-04-29 03:13:00,-999.9,-99.9,29.87,North,32767,-999.0,16.0,255,-99.99,,,0.00,Wunderground v.1.15,2013-04-29 10:13:00,
2013-04-29 03:19:00,-999.9,-99.9,29.87,North,32767,-999.0,16.0,255,-99.99,,,0.00,Wunderground v.1.15,2013-04-29 10:19:00,
2013-04-29 03:24:00,-999.9,-99.9,29.87,North,32767,-999.0,16.0,255,-99.99,,,0.00,Wunderground v.1.15,2013-04-29 10:24:00,
2013-04-29 03:29:00,-999.9,-99.9,29.87,North,32767,-999.0,16.0,255,-99.99,,,0.00,Wunderground v.1.15,2013-04-29 10:29:00,
2013-04-29 03:34:00,-999.9,-99.9,29.87,North,32767,-999.0,16.0,255,-99.99,,,0.00,Wunderground v.1.15,2013-04-29 10:34:00,
2013-04-29 03:40:00,-999.9,-99.9,29.87,North,32767,-999.0,16.0,255,-99.99,,,0.00,Wunderground v.1.15,2013-04-29 10:40:00,
2013-04-29 03:45:00,-999.9,-99.9,29.87,North,32767,-999.0,16.0,255,-99.99,,,0.00,Wunderground v.1.15,2013-04-29 10:45:00,
2013-04-29 03:50:00,-999.9,-99.9,29.87,North,32767,-999.0,16.0,255,-99.99,,,0.00,Wunderground v.1.15,2013-04-29 10:50:00,
2013-04-29 03:56:00,-999.9,-99.9,29.88,North,32767,-999.0,16.0,255,-99.99,,,0.00,Wunderground v.1.15,2013-04-29 10:56:00,
2013-04-29 04:01:00,-999.9,-99.9,29.88,North,32767,-999.0,16.0,255,-99.99,,,0.00,Wunderground v.1.15,2013-04-29 11:01:00,
2013-04-29 04:07:00,-999.9,-99.9,29.88,North,32767,-999.0,16.0,255,-99.99,,,0.00,Wunderground v.1.15,2013-04-29 11:07:00,
2013-04-29 04:12:00,-999.9,-99.9,29.88,North,32767,-999.0,16.0,255,-99.99,,,0.00,Wunderground v.1.15,2013-04-29 11:12:00,
2013-04-29 04:17:00,-999.9,-99.9,29.88,North,32767,-999.0,16.0,255,-99.99,,,0.00,Wunderground v.1.15,2013-04-29 11:17:00,
2013-04-29 04:22:00,-999.9,-99.9,29.88,North,32767,-999.0,16.0,255,-99.99,,,0.00,Wunderground v.1.15,2013-04-29 11:22:00,
2013-04-29 04:28:00,-999.9,-99.9,29.88,North,32767,-999.0,16.0,255,-99.99,,,0.00,Wunderground v.1.15,2013-04-29 11:28:00,
2013-04-29 04:34:00,-999.9,-99.9,29.88,North,32767,-999.0,16.0,255,-99.99,,,0.00,Wunderground v.1.15,2013-04-29 11:34:00,
2013-04-29 04:40:00,-999.9,-99.9,29.88,North,32767,-999.0,16.0,255,-99.99,,,0.00,Wunderground v.1.15,2013-04-29 11:40:00,
2013-04-29 04:45:00,-999.9,-99.9,29.88,North,32767,-999.0,16.0,255,-99.99,,,0.00,Wunderground v.1.15,2013-04-29 11:45:00,
2013-04-29 04:50:00,-999.9,-99.9,29.88,North,32767,-999.0,16.0,255,-99.99,,,0.00,Wunderground v.1.15,2013-04-29 11:50:00,
2013-04-29 04:56:00,-999.9,-99.9,29.88,North,32767,-999.0,16.0,255,-99.99,,,0.00,Wunderground v.1.15,2013-04-29 11:56:00,
2013-04-29 05:02:00,-999.9,-99.9,29.88,North,32767,-999.0,16.0,255,-99.99,,,0.00,Wunderground v.1.15,2013-04-29 12:02:00,
2013-04-29 05:08:00,52.3,50.9,29.88,WNW,302,0.0,16.0,95,0.00,,,0.00,Wunderground v.1.15,2013-04-29 12:08:00,
2013-04-29 05:13:00,52.3,50.9,29.88,WNW,302,0.0,16.0,95,0.00,,,0.00,Wunderground v.1.15,2013-04-29 12:13:00,
2013-04-29 05:19:00,52.2,50.8,29.88,WNW,302,0.0,16.0,95,0.00,,,0.00,Wunderground v.1.15,2013-04-29 12:19:00,
2013-04-29 05:25:00,52.2,50.8,29.88,WNW,302,0.0,16.0,95,0.00,,,0.00,Wunderground v.1.15,2013-04-29 12:25:00,
2013-04-29 05:31:00,52.2,50.8,29.88,SSE,166,0.0,16.0,95,0.00,,,0.00,Wunderground v.1.15,2013-04-29 12:31:00,
2013-04-29 05:36:00,52.1,50.7,29.88,SSE,166,0.0,16.0,95,0.00,,,0.00,Wunderground v.1.15,2013-04-29 12:36:00,
2013-04-29 05:42:00,52.1,51.0,29.88,SSE,152,0.0,16.0,96,0.00,,,0.00,Wunderground v.1.15,2013-04-29 12:42:00,
2013-04-29 05:47:00,52.1,51.0,29.88,SE,135,0.0,16.0,96,0.00,,,0.00,Wunderground v.1.15,2013-04-29 12:47:00,
2013-04-29 05:52:00,52.1,51.0,29.88,SE,135,0.0,16.0,96,0.00,,,0.00,Wunderground v.1.15,2013-04-29 12:52:00,
2013-04-29 05:58:00,52.1,51.0,29.88,ESE,118,0.0,16.0,96,0.00,,,0.00,Wunderground v.1.15,2013-04-29 12:58:00,
2013-04-29 06:03:00,52.1,51.0,29.88,ENE,71,0.0,16.0,96,0.00,,,0.00,Wunderground v.1.15,2013-04-29 13:03:00,
2013-04-29 06:09:00,52.2,51.1,29.88,ENE,67,0.0,16.0,96,0.00,,,0.00,Wunderground v.1.15,2013-04-29 13:09:00,
2013-04-29 06:15:00,52.1,51.0,29.89,NE,45,0.0,16.0,96,0.00,,,0.00,Wunderground v.1.15,2013-04-29 13:15:00,
2013-04-29 06:21:00,52.1,51.0,29.89,North,355,0.0,16.0,96,0.00,,,0.00,Wunderground v.1.15,2013-04-29 13:21:00,
2013-04-29 06:26:00,52.1,51.0,29.89,North,355,0.0,16.0,96,0.00,,,0.00,Wunderground v.1.15,2013-04-29 13:26:00,
2013-04-29 06:32:00,52.2,51.1,29.89,North,355,0.0,16.0,96,0.00,,,0.00,Wunderground v.1.15,2013-04-29 13:32:00,
2013-04-29 06:37:00,52.1,51.0,29.89,North,360,0.0,16.0,96,0.00,,,0.00,Wunderground v.1.15,2013-04-29 13:37:00,
2013-04-29 06:43:00,52.2,51.1,29.89,North,360,0.0,16.0,96,0.00,,,0.00,Wunderground v.1.15,2013-04-29 13:43:00,
2013-04-29 06:49:00,52.2,51.1,29.89,North,360,0.0,16.0,96,0.00,,,0.00,Wunderground v.1.15,2013-04-29 13:49:00,
2013-04-29 06:55:00,52.2,51.1,29.90,NNE,24,0.0,16.0,96,0.00,,,0.00,Wunderground v.1.15,2013-04-29 13:55:00,
2013-04-29 07:00:00,52.3,51.2,29.90,NNE,16,0.0,16.0,96,0.00,,,0.00,Wunderground v.1.15,2013-04-29 14:00:00,
2013-04-29 07:06:00,52.4,51.3,29.90,NNE,16,0.0,16.0,96,0.00,,,0.00,Wunderground v.1.15,2013-04-29 14:06:00,
2013-04-29 07:11:00,52.4,51.3,29.90,NNE,16,0.0,16.0,96,0.00,,,0.00,Wunderground v.1.15,2013-04-29 14:11:00,
2013-04-29 07:17:00,52.4,51.3,29.90,ENE,68,0.0,16.0,96,0.00,,,0.00,Wunderground v.1.15,2013-04-29 14:17:00,
2013-04-29 07:22:00,52.5,51.4,29.90,NNE,15,1.0,16.0,96,0.00,,,0.00,Wunderground v.1.15,2013-04-29 14:22:00,
2013-04-29 07:28:00,52.4,51.3,29.90,North,360,1.0,16.0,96,0.00,,,0.00,Wunderground v.1.15,2013-04-29 14:28:00,
2013-04-29 07:34:00,52.4,51.3,29.90,North,5,1.0,16.0,96,0.00,,,0.00,Wunderground v.1.15,2013-04-29 14:34:00,
2013-04-29 07:40:00,52.4,51.3,29.90,North,11,1.0,16.0,96,0.00,,,0.00,Wunderground v.1.15,2013-04-29 14:40:00,
2013-04-29 07:45:00,52.5,51.4,29.90,North,11,1.0,16.0,96,0.00,,,0.00,Wunderground v.1.15,2013-04-29 14:45:00,
2013-04-29 07:50:00,52.5,51.4,29.90,North,355,1.0,16.0,96,0.00,,,0.00,Wunderground v.1.15,2013-04-29 14:50:00,
2013-04-29 07:56:00,52.5,51.4,29.90,NNW,339,2.0,16.0,96,0.00,,,0.00,Wunderground v.1.15,2013-04-29 14:56:00,
2013-04-29 08:02:00,52.6,51.5,29.90,North,5,1.0,16.0,96,0.00,,,0.00,Wunderground v.1.15,2013-04-29 15:02:00,
2013-04-29 08:07:00,52.7,51.6,29.90,North,5,2.0,16.0,96,0.00,,,0.00,Wunderground v.1.15,2013-04-29 15:07:00,
2013-04-29 08:13:00,52.7,51.6,29.90,North,5,2.0,16.0,96,0.00,,,0.00,Wunderground v.1.15,2013-04-29 15:13:00,
2013-04-29 08:19:00,52.9,51.8,29.90,North,9,1.0,16.0,96,0.00,,,0.00,Wunderground v.1.15,2013-04-29 15:19:00,
2013-04-29 08:24:00,52.9,51.8,29.90,North,355,1.0,16.0,96,0.00,,,0.00,Wunderground v.1.15,2013-04-29 15:24:00,
2013-04-29 08:29:00,53.0,51.9,29.90,NNE,19,1.0,16.0,96,0.00,,,0.00,Wunderground v.1.15,2013-04-29 15:29:00,
2013-04-29 08:35:00,53.1,51.7,29.90,North,5,0.0,16.0,95,0.00,,,0.00,Wunderground v.1.15,2013-04-29 15:35:00,
2013-04-29 08:41:00,53.1,51.7,29.90,NNE,15,1.0,16.0,95,0.00,,,0.00,Wunderground v.1.15,2013-04-29 15:41:00,
2013-04-29 08:46:00,53.2,51.8,29.90,North,5,1.0,16.0,95,0.00,,,0.00,Wunderground v.1.15,2013-04-29 15:46:00,
2013-04-29 08:51:00,53.4,52.0,29.90,NNE,19,0.0,16.0,95,0.00,,,0.00,Wunderground v.1.15,2013-04-29 15:51:00,
2013-04-29 08:57:00,53.6,52.2,29.91,ENE,57,0.0,16.0,95,0.00,,,0.00,Wunderground v.1.15,2013-04-29 15:57:00,
2013-04-29 09:03:00,53.7,52.0,29.90,ESE,123,0.0,16.0,94,0.00,,,0.00,Wunderground v.1.15,2013-04-29 16:03:00,
2013-04-29 09:09:00,53.7,52.0,29.90,SSW,206,0.0,16.0,94,0.00,,,0.00,Wunderground v.1.15,2013-04-29 16:09:00,
2013-04-29 09:15:00,53.8,52.1,29.90,NW,311,0.0,16.0,94,0.00,,,0.00,Wunderground v.1.15,2013-04-29 16:15:00,
2013-04-29 09:21:00,54.1,52.4,29.90,NW,311,0.0,16.0,94,0.00,,,0.00,Wunderground v.1.15,2013-04-29 16:21:00,
2013-04-29 09:26:00,54.3,52.3,29.90,WSW,256,0.0,16.0,93,0.00,,,0.00,Wunderground v.1.15,2013-04-29 16:26:00,
2013-04-29 09:31:00,54.7,52.7,29.91,WSW,248,1.0,3.0,93,0.00,,,0.00,Wunderground v.1.15,2013-04-29 16:31:00,
2013-04-29 09:37:00,54.9,52.6,29.90,West,280,1.0,16.0,92,0.00,,,0.00,Wunderground v.1.15,2013-04-29 16:37:00,
2013-04-29 09:43:00,55.4,53.1,29.90,SSW,209,1.0,16.0,92,0.00,,,0.00,Wunderground v.1.15,2013-04-29 16:43:00,
2013-04-29 09:49:00,55.8,53.2,29.90,WSW,258,1.0,16.0,91,0.00,,,0.00,Wunderground v.1.15,2013-04-29 16:49:00,
2013-04-29 09:54:00,56.1,53.2,29.90,WSW,253,0.0,16.0,90,0.00,,,0.00,Wunderground v.1.15,2013-04-29 16:54:00,
2013-04-29 10:00:00,56.7,53.8,29.90,South,191,1.0,16.0,90,0.00,,,0.00,Wunderground v.1.15,2013-04-29 17:00:00,
2013-04-29 10:05:00,57.0,53.5,29.90,SSE,162,1.0,16.0,88,0.00,,,0.00,Wunderground v.1.15,2013-04-29 17:05:00,
2013-04-29 10:11:00,57.4,54.2,29.89,WSW,244,1.0,16.0,89,0.00,,,0.00,Wunderground v.1.15,2013-04-29 17:11:00,
2013-04-29 10:16:00,57.9,54.1,29.90,SSE,165,2.0,16.0,87,0.00,,,0.00,Wunderground v.1.15,2013-04-29 17:16:00,
2013-04-29 10:22:00,58.3,54.8,29.90,SW,223,3.0,16.0,88,0.00,,,0.00,Wunderground v.1.15,2013-04-29 17:22:00,
2013-04-29 10:28:00,58.5,54.3,29.89,SSE,157,3.0,16.0,86,0.00,,,0.00,Wunderground v.1.15,2013-04-29 17:28:00,
2013-04-29 10:33:00,58.8,54.9,29.90,SSW,192,3.0,16.0,87,0.00,,,0.00,Wunderground v.1.15,2013-04-29 17:33:00,
2013-04-29 10:38:00,59.4,55.2,29.90,SW,226,2.0,16.0,86,0.00,,,0.00,Wunderground v.1.15,2013-04-29 17:38:00,
2013-04-29 10:44:00,59.9,54.7,29.89,South,189,3.0,16.0,83,0.00,,,0.00,Wunderground v.1.15,2013-04-29 17:44:00,
2013-04-29 10:49:00,60.7,55.8,29.89,SW,219,3.0,16.0,84,0.00,,,0.00,Wunderground v.1.15,2013-04-29 17:49:00,
2013-04-29 10:55:00,61.8,55.9,29.89,SW,219,3.0,16.0,81,0.00,,,0.00,Wunderground v.1.15,2013-04-29 17:55:00,
2013-04-29 11:00:00,62.4,56.1,29.89,SW,219,3.0,16.0,80,0.00,,,0.00,Wunderground v.1.15,2013-04-29 18:00:00,
2013-04-29 11:05:00,63.3,56.3,29.89,SW,215,3.0,16.0,78,0.00,,,0.00,Wunderground v.1.15,2013-04-29 18:05:00,
2013-04-29 11:11:00,64.2,56.8,29.89,WSW,249,3.0,16.0,77,0.00,,,0.00,Wunderground v.1.15,2013-04-29 18:11:00,
2013-04-29 11:16:00,64.8,56.7,29.89,SSW,205,4.0,16.0,75,0.00,,,0.00,Wunderground v.1.15,2013-04-29 18:16:00,
2013-04-29 11:22:00,65.3,56.8,29.89,WSW,237,4.0,16.0,74,0.00,,,0.00,Wunderground v.1.15,2013-04-29 18:22:00,
2013-04-29 11:27:00,65.7,57.6,29.89,SW,235,4.0,16.0,75,0.00,,,0.00,Wunderground v.1.15,2013-04-29 18:27:00,
2013-04-29 11:33:00,66.1,57.6,29.88,SW,229,4.0,16.0,74,0.00,,,0.00,Wunderground v.1.15,2013-04-29 18:33:00,
2013-04-29 11:39:00,66.8,56.7,29.88,SW,222,4.0,16.0,70,0.00,,,0.00,Wunderground v.1.15,2013-04-29 18:39:00,
2013-04-29 11:45:00,67.2,57.5,29.88,West,269,4.0,16.0,71,0.00,,,0.00,Wunderground v.1.15,2013-04-29 18:45:00,
2013-04-29 11:50:00,67.5,57.0,29.87,SW,234,4.0,16.0,69,0.00,,,0.00,Wunderground v.1.15,2013-04-29 18:50:00,
2013-04-29 11:56:00,68.3,57.7,29.87,WSW,245,4.0,16.0,69,0.00,,,0.00,Wunderground v.1.15,2013-04-29 18:56:00,
2013-04-29 12:01:00,68.7,57.3,29.87,SW,219,4.0,16.0,67,0.00,,,0.00,Wunderground v.1.15,2013-04-29 19:01:00,
2013-04-29 12:07:00,69.1,58.1,29.86,SW,236,4.0,16.0,68,0.00,,,0.00,Wunderground v.1.15,2013-04-29 19:07:00,
2013-04-29 12:12:00,69.7,57.8,29.86,West,266,4.0,16.0,66,0.00,,,0.00,Wunderground v.1.15,2013-04-29 19:12:00,
2013-04-29 12:18:00,70.1,57.8,29.86,SW,219,5.0,16.0,65,0.00,,,0.00,Wunderground v.1.15,2013-04-29 19:18:00,
2013-04-29 12:23:00,70.5,57.7,29.86,SSW,203,4.0,16.0,64,0.00,,,0.00,Wunderground v.1.15,2013-04-29 19:23:00,
2013-04-29 12:28:00,70.9,58.5,29.86,WSW,238,4.0,16.0,65,0.00,,,0.00,Wunderground v.1.15,2013-04-29 19:28:00,
2013-04-29 12:34:00,70.8,58.4,29.86,WSW,242,5.0,16.0,65,0.00,,,0.00,Wunderground v.1.15,2013-04-29 19:34:00,
2013-04-29 12:39:00,71.1,57.9,29.85,SW,229,5.0,16.0,63,0.00,,,0.00,Wunderground v.1.15,2013-04-29 19:39:00,
2013-04-29 12:45:00,71.6,58.8,29.85,WSW,242,5.0,16.0,64,0.00,,,0.00,Wunderground v.1.15,2013-04-29 19:45:00,
2013-04-29 12:50:00,71.7,58.0,29.85,SW,227,5.0,16.0,62,0.00,,,0.00,Wunderground v.1.15,2013-04-29 19:50:00,
2013-04-29 12:56:00,71.9,58.2,29.85,South,188,6.0,16.0,62,0.00,,,0.00,Wunderground v.1.15,2013-04-29 19:56:00,
2013-04-29 13:01:00,71.7,58.4,29.85,WSW,257,5.0,16.0,63,0.00,,,0.00,Wunderground v.1.15,2013-04-29 20:01:00,
2013-04-29 13:07:00,71.4,58.1,29.84,SW,236,6.0,16.0,63,0.00,,,0.00,Wunderground v.1.15,2013-04-29 20:07:00,
2013-04-29 13:12:00,71.5,57.8,29.84,SSW,197,6.0,16.0,62,0.00,,,0.00,Wunderground v.1.15,2013-04-29 20:12:00,
2013-04-29 13:17:00,71.7,58.4,29.84,SW,217,5.0,16.0,63,0.00,,,0.00,Wunderground v.1.15,2013-04-29 20:17:00,
2013-04-29 13:23:00,71.7,58.4,29.84,WSW,250,6.0,16.0,63,0.00,,,0.00,Wunderground v.1.15,2013-04-29 20:23:00,
2013-04-29 13:28:00,71.6,58.3,29.84,SW,230,7.0,16.0,63,0.00,,,0.00,Wunderground v.1.15,2013-04-29 20:28:00,
2013-04-29 13:34:00,71.5,57.8,29.84,SW,226,6.0,16.0,62,0.00,,,0.00,Wunderground v.1.15,2013-04-29 20:34:00,
2013-04-29 13:39:00,71.2,57.5,29.84,South,175,7.0,16.0,62,0.00,,,0.00,Wunderground v.1.15,2013-04-29 20:39:00,
2013-04-29 13:45:00,71.4,58.1,29.83,SSW,207,6.0,16.0,63,0.00,,,0.00,Wunderground v.1.15,2013-04-29 20:45:00,
2013-04-29 13:51:00,70.9,58.1,29.83,WSW,257,6.0,16.0,64,0.00,,,0.00,Wunderground v.1.15,2013-04-29 20:51:00,
2013-04-29 13:57:00,71.1,57.9,29.83,WSW,239,6.0,16.0,63,0.00,,,0.00,Wunderground v.1.15,2013-04-29 20:57:00,
2013-04-29 14:02:00,71.3,58.5,29.83,SW,229,5.0,16.0,64,0.00,,,0.00,Wunderground v.1.15,2013-04-29 21:02:00,
2013-04-29 14:08:00,71.1,57.4,29.83,SW,230,6.0,16.0,62,0.00,,,0.00,Wunderground v.1.15,2013-04-29 21:08:00,
2013-04-29 14:14:00,70.5,57.7,29.83,WSW,244,8.0,16.0,64,0.00,,,0.00,Wunderground v.1.15,2013-04-29 21:14:00,
2013-04-29 14:20:00,70.4,58.1,29.83,SW,228,7.0,16.0,65,0.00,,,0.00,Wunderground v.1.15,2013-04-29 21:20:00,
2013-04-29 14:25:00,70.4,58.5,29.83,South,189,7.0,16.0,66,0.00,,,0.00,Wunderground v.1.15,2013-04-29 21:25:00,
2013-04-29 14:30:00,70.1,58.2,29.83,SW,219,7.0,7.0,66,0.00,,,0.00,Wunderground v.1.15,2013-04-29 21:30:00,
2013-04-29 14:36:00,70.1,57.4,29.82,WSW,251,8.0,16.0,64,0.00,,,0.00,Wunderground v.1.15,2013-04-29 21:36:00,
2013-04-29 14:42:00,70.1,57.8,29.83,SW,217,7.0,16.0,65,0.00,,,0.00,Wunderground v.1.15,2013-04-29 21:42:00,
2013-04-29 14:48:00,70.0,58.1,29.82,WSW,248,7.0,16.0,66,0.00,,,0.00,Wunderground v.1.15,2013-04-29 21:48:00,
2013-04-29 14:54:00,69.8,57.9,29.82,WSW,246,7.0,16.0,66,0.00,,,0.00,Wunderground v.1.15,2013-04-29 21:54:00,
2013-04-29 15:00:00,70.1,57.8,29.81,WSW,258,6.0,16.0,65,0.00,,,0.00,Wunderground v.1.15,2013-04-29 22:00:00,
2013-04-29 15:06:00,69.4,57.5,29.81,SW,218,8.0,16.0,66,0.00,,,0.00,Wunderground v.1.15,2013-04-29 22:06:00,
2013-04-29 15:12:00,69.4,58.0,29.81,SW,214,7.0,16.0,67,0.00,,,0.00,Wunderground v.1.15,2013-04-29 22:12:00,
2013-04-29 15:17:00,69.5,57.6,29.81,SW,233,7.0,16.0,66,0.00,,,0.00,Wunderground v.1.15,2013-04-29 22:17:00,
2013-04-29 15:23:00,68.9,57.1,29.81,WSW,251,9.0,16.0,66,0.00,,,0.00,Wunderground v.1.15,2013-04-29 22:23:00,
2013-04-29 15:29:00,68.7,57.7,29.80,SW,235,8.0,16.0,68,0.00,,,0.00,Wunderground v.1.15,2013-04-29 22:29:00,
2013-04-29 15:34:00,68.8,57.4,29.80,WSW,255,7.0,16.0,67,0.00,,,0.00,Wunderground v.1.15,2013-04-29 22:34:00,
2013-04-29 15:39:00,69.2,57.8,29.80,WSW,257,6.0,16.0,67,0.00,,,0.00,Wunderground v.1.15,2013-04-29 22:39:00,
2013-04-29 15:45:00,69.2,58.2,29.80,WSW,251,6.0,16.0,68,0.00,,,0.00,Wunderground v.1.15,2013-04-29 22:45:00,
2013-04-29 15:50:00,69.6,58.2,29.80,South,190,5.0,5.0,67,0.00,,,0.00,Wunderground v.1.15,2013-04-29 22:50:00,
2013-04-29 15:56:00,69.3,57.0,29.80,WSW,258,6.0,16.0,65,0.00,,,0.00,Wunderground v.1.15,2013-04-29 22:56:00,
2013-04-29 16:02:00,69.0,57.6,29.79,SW,225,6.0,16.0,67,0.00,,,0.00,Wunderground v.1.15,2013-04-29 23:02:00,
2013-04-29 16:07:00,69.0,57.2,29.79,SW,220,6.0,16.0,66,0.00,,,0.00,Wunderground v.1.15,2013-04-29 23:07:00,
2013-04-29 16:13:00,68.7,57.3,29.79,South,188,6.0,16.0,67,0.00,,,0.00,Wunderground v.1.15,2013-04-29 23:13:00,
2013-04-29 16:19:00,68.8,57.4,29.79,SSW,209,5.0,16.0,67,0.00,,,0.00,Wunderground v.1.15,2013-04-29 23:19:00,
2013-04-29 16:25:00,68.2,56.8,29.79,SW,233,5.0,16.0,67,0.00,,,0.00,Wunderground v.1.15,2013-04-29 23:25:00,
2013-04-29 16:30:00,68.3,57.3,29.79,South,191,5.0,5.0,68,0.00,,,0.00,Wunderground v.1.15,2013-04-29 23:30:00,
2013-04-29 16:35:00,68.2,57.2,29.79,SW,217,5.0,16.0,68,0.00,,,0.00,Wunderground v.1.15,2013-04-29 23:35:00,
2013-04-29 16:41:00,67.9,56.9,29.79,WSW,238,5.0,16.0,68,0.00,,,0.00,Wunderground v.1.15,2013-04-29 23:41:00,
2013-04-29 16:46:00,67.8,56.9,29.79,WSW,241,5.0,16.0,68,0.00,,,0.00,Wunderground v.1.15,2013-04-29 23:46:00,
2013-04-29 16:52:00,67.7,56.8,29.78,WSW,238,6.0,16.0,68,0.00,,,0.00,Wunderground v.1.15,2013-04-29 23:52:00,
2013-04-29 16:57:00,67.8,57.3,29.79,WSW,257,6.0,16.0,69,0.00,,,0.00,Wunderground v.1.15,2013-04-29 23:57:00,
2013-04-29 17:02:00,67.7,57.2,29.79,SW,223,5.0,16.0,69,0.00,,,0.00,Wunderground v.1.15,2013-04-30 00:02:00,
2013-04-29 17:08:00,67.7,56.8,29.79,SSW,210,5.0,16.0,68,0.00,,,0.00,Wunderground v.1.15,2013-04-30 00:08:00,
2013-04-29 17:14:00,67.5,57.0,29.78,South,172,5.0,16.0,69,0.00,,,0.00,Wunderground v.1.15,2013-04-30 00:14:00,
2013-04-29 17:20:00,66.9,56.8,29.78,SW,233,5.0,5.0,70,0.00,,,0.00,Wunderground v.1.15,2013-04-30 00:20:00,
2013-04-29 17:26:00,66.6,56.1,29.78,SSW,207,5.0,16.0,69,0.00,,,0.00,Wunderground v.1.15,2013-04-30 00:26:00,
2013-04-29 17:31:00,66.2,56.1,29.79,SW,233,6.0,16.0,70,0.00,,,0.00,Wunderground v.1.15,2013-04-30 00:31:00,
2013-04-29 17:37:00,65.8,56.1,29.78,West,271,6.0,16.0,71,0.00,,,0.00,Wunderground v.1.15,2013-04-30 00:37:00,
2013-04-29 17:43:00,65.7,56.0,29.78,SW,225,5.0,16.0,71,0.00,,,0.00,Wunderground v.1.15,2013-04-30 00:43:00,
2013-04-29 17:48:00,65.7,56.0,29.78,WSW,248,4.0,16.0,71,0.00,,,0.00,Wunderground v.1.15,2013-04-30 00:48:00,
2013-04-29 17:54:00,65.8,56.1,29.78,SW,218,5.0,16.0,71,0.00,,,0.00,Wunderground v.1.15,2013-04-30 00:54:00,
2013-04-29 18:00:00,65.4,55.7,29.78,WSW,251,5.0,16.0,71,0.00,,,0.00,Wunderground v.1.15,2013-04-30 01:00:00,
2013-04-29 18:06:00,65.1,56.2,29.78,SSW,202,5.0,16.0,73,0.00,,,0.00,Wunderground v.1.15,2013-04-30 01:06:00,
2013-04-29 18:12:00,65.0,56.1,29.78,WSW,256,3.0,16.0,73,0.00,,,0.00,Wunderground v.1.15,2013-04-30 01:12:00,
2013-04-29 18:17:00,64.8,55.9,29.78,West,259,4.0,16.0,73,0.00,,,0.00,Wunderground v.1.15,2013-04-30 01:17:00,
2013-04-29 18:23:00,64.3,55.5,29.78,WSW,253,5.0,16.0,73,0.00,,,0.00,Wunderground v.1.15,2013-04-30 01:23:00,
2013-04-29 18:29:00,63.5,55.4,29.78,WSW,254,6.0,16.0,75,0.00,,,0.00,Wunderground v.1.15,2013-04-30 01:29:00,
2013-04-29 18:35:00,62.9,55.2,29.78,WSW,246,5.0,16.0,76,0.00,,,0.00,Wunderground v.1.15,2013-04-30 01:35:00,
2013-04-29 18:41:00,62.5,55.2,29.78,WSW,252,5.0,16.0,77,0.00,,,0.00,Wunderground v.1.15,2013-04-30 01:41:00,
2013-04-29 18:46:00,62.3,55.4,29.78,West,261,4.0,16.0,78,0.00,,,0.00,Wunderground v.1.15,2013-04-30 01:46:00,
2013-04-29 18:51:00,62.0,55.1,29.78,WSW,238,4.0,16.0,78,0.00,,,0.00,Wunderground v.1.15,2013-04-30 01:51:00,
2013-04-29 18:57:00,61.5,54.9,29.79,SW,234,5.0,16.0,79,0.00,,,0.00,Wunderground v.1.15,2013-04-30 01:57:00,
2013-04-29 19:02:00,61.2,55.0,29.79,SSW,212,5.0,16.0,80,0.00,,,0.00,Wunderground v.1.15,2013-04-30 02:02:00,
2013-04-29 19:08:00,60.9,54.7,29.79,WSW,246,3.0,16.0,80,0.00,,,0.00,Wunderground v.1.15,2013-04-30 02:08:00,
2013-04-29 19:13:00,60.5,54.6,29.79,WSW,252,3.0,16.0,81,0.00,,,0.00,Wunderground v.1.15,2013-04-30 02:13:00,
2013-04-29 19:18:00,60.1,54.6,29.79,SW,221,4.0,16.0,82,0.00,,,0.00,Wunderground v.1.15,2013-04-30 02:18:00,
2013-04-29 19:24:00,59.7,54.2,29.79,SW,233,4.0,16.0,82,0.00,,,0.00,Wunderground v.1.15,2013-04-30 02:24:00,
2013-04-29 19:29:00,59.3,54.1,29.79,SW,219,3.0,16.0,83,0.00,,,0.00,Wunderground v.1.15,2013-04-30 02:29:00,
2013-04-29 19:35:00,59.0,54.2,29.80,SSW,201,4.0,16.0,84,0.00,,,0.00,Wunderground v.1.15,2013-04-30 02:35:00,
2013-04-29 19:41:00,58.6,54.1,29.80,SW,231,3.0,16.0,85,0.00,,,0.00,Wunderground v.1.15,2013-04-30 02:41:00,
2013-04-29 19:46:00,58.4,53.9,29.80,WSW,247,2.0,16.0,85,0.00,,,0.00,Wunderground v.1.15,2013-04-30 02:46:00,
2013-04-29 19:51:00,58.1,53.9,29.80,WSW,239,2.0,16.0,86,0.00,,,0.00,Wunderground v.1.15,2013-04-30 02:51:00,
2013-04-29 19:57:00,57.9,53.7,29.80,SW,221,1.0,16.0,86,0.00,,,0.00,Wunderground v.1.15,2013-04-30 02:57:00,
2013-04-29 20:02:00,57.7,53.9,29.80,SW,229,1.0,16.0,87,0.00,,,0.00,Wunderground v.1.15,2013-04-30 03:02:00,
2013-04-29 20:08:00,57.5,53.7,29.80,WSW,238,2.0,16.0,87,0.00,,,0.00,Wunderground v.1.15,2013-04-30 03:08:00,
2013-04-29 20:13:00,57.3,53.8,29.80,SW,233,2.0,16.0,88,0.00,,,0.00,Wunderground v.1.15,2013-04-30 03:13:00,
2013-04-29 20:18:00,57.1,53.6,29.80,WSW,248,1.0,16.0,88,0.00,,,0.00,Wunderground v.1.15,2013-04-30 03:18:00,
2013-04-29 20:23:00,56.9,53.4,29.81,SW,232,2.0,16.0,88,0.00,,,0.00,Wunderground v.1.15,2013-04-30 03:23:00,
2013-04-29 20:29:00,56.7,53.5,29.81,WSW,241,3.0,16.0,89,0.00,,,0.00,Wunderground v.1.15,2013-04-30 03:29:00,
2013-04-29 20:34:00,56.6,53.4,29.81,SW,236,3.0,16.0,89,0.00,,,0.00,Wunderground v.1.15,2013-04-30 03:34:00,
2013-04-29 20:40:00,56.4,53.2,29.81,WSW,238,3.0,3.0,89,0.00,,,0.00,Wunderground v.1.15,2013-04-30 03:40:00,
2013-04-29 20:45:00,56.3,53.4,29.81,WSW,246,2.0,16.0,90,0.00,,,0.00,Wunderground v.1.15,2013-04-30 03:45:00,
2013-04-29 20:51:00,56.2,53.3,29.81,WSW,242,1.0,16.0,90,0.00,,,0.00,Wunderground v.1.15,2013-04-30 03:51:00,
2013-04-29 20:56:00,56.1,53.2,29.82,WSW,252,1.0,16.0,90,0.00,,,0.00,Wunderground v.1.15,2013-04-30 03:56:00,
2013-04-29 21:01:00,56.0,53.1,29.82,WSW,252,0.0,16.0,90,0.00,,,0.00,Wunderground v.1.15,2013-04-30 04:01:00,
2013-04-29 21:02:00,56.0,53.1,29.82,WSW,252,0.0,16.0,90,0.00,,,0.00,Wunderground v.1.15,2013-04-30 04:02:00,
2013-04-29 21:03:00,55.9,53.0,29.82,WSW,250,1.0,16.0,90,0.00,,,0.00,Wunderground v.1.15,2013-04-30 04:03:00,
2013-04-29 21:05:00,55.9,53.0,29.82,WSW,250,1.0,16.0,90,0.00,,,0.00,Wunderground v.1.15,2013-04-30 04:05:00,
2013-04-29 21:11:00,55.8,52.9,29.82,WSW,244,1.0,16.0,90,0.00,,,0.00,Wunderground v.1.15,2013-04-30 04:11:00,
2013-04-29 21:17:00,55.8,53.2,29.82,SW,229,1.0,16.0,91,0.00,,,0.00,Wunderground v.1.15,2013-04-30 04:17:00,
2013-04-29 21:23:00,55.8,53.2,29.82,WSW,240,2.0,16.0,91,0.00,,,0.00,Wunderground v.1.15,2013-04-30 04:23:00,
2013-04-29 21:28:00,55.7,53.4,29.82,WSW,246,3.0,16.0,92,0.00,,,0.00,Wunderground v.1.15,2013-04-30 04:28:00,
2013-04-29 21:34:00,55.7,53.4,29.82,WSW,254,3.0,16.0,92,0.00,,,0.00,Wunderground v.1.15,2013-04-30 04:34:00,
2013-04-29 21:39:00,55.7,53.4,29.82,WSW,239,2.0,16.0,92,0.00,,,0.00,Wunderground v.1.15,2013-04-30 04:39:00,
2013-04-29 21:45:00,55.8,53.5,29.82,SSW,202,2.0,16.0,92,0.00,,,0.00,Wunderground v.1.15,2013-04-30 04:45:00,
2013-04-29 21:51:00,55.9,53.6,29.82,SSW,202,1.0,16.0,92,0.00,,,0.00,Wunderground v.1.15,2013-04-30 04:51:00,
2013-04-29 21:57:00,55.9,53.6,29.82,SSW,200,0.0,16.0,92,0.00,,,0.00,Wunderground v.1.15,2013-04-30 04:57:00,
2013-04-29 22:02:00,55.9,53.6,29.82,SSW,200,0.0,16.0,92,0.00,,,0.00,Wunderground v.1.15,2013-04-30 05:02:00,
2013-04-29 22:08:00,56.0,53.7,29.82,SSW,208,0.0,16.0,92,0.00,,,0.00,Wunderground v.1.15,2013-04-30 05:08:00,
2013-04-29 22:13:00,55.9,53.6,29.82,SW,215,0.0,16.0,92,0.00,,,0.00,Wunderground v.1.15,2013-04-30 05:13:00,
2013-04-29 22:19:00,55.9,53.6,29.83,WSW,242,1.0,16.0,92,0.00,,,0.00,Wunderground v.1.15,2013-04-30 05:19:00,
2013-04-29 22:25:00,56.0,53.7,29.83,SW,225,1.0,16.0,92,0.00,,,0.00,Wunderground v.1.15,2013-04-30 05:25:00,
2013-04-29 22:31:00,56.0,53.7,29.83,SW,219,0.0,16.0,92,0.00,,,0.00,Wunderground v.1.15,2013-04-30 05:31:00,
2013-04-29 22:36:00,56.0,53.7,29.83,SW,216,0.0,16.0,92,0.00,,,0.00,Wunderground v.1.15,2013-04-30 05:36:00,
2013-04-29 22:41:00,56.0,53.7,29.83,SW,216,0.0,16.0,92,0.00,,,0.00,Wunderground v.1.15,2013-04-30 05:41:00,
2013-04-29 22:47:00,56.1,53.8,29.83,SW,216,0.0,16.0,92,0.00,,,0.00,Wunderground v.1.15,2013-04-30 05:47:00,
2013-04-29 22:53:00,56.1,53.8,29.83,SW,216,0.0,16.0,92,0.00,,,0.00,Wunderground v.1.15,2013-04-30 05:53:00,
2013-04-29 22:59:00,56.2,53.9,29.83,WSW,244,1.0,16.0,92,0.00,,,0.00,Wunderground v.1.15,2013-04-30 05:59:00,
2013-04-29 23:04:00,56.2,53.9,29.83,WSW,241,2.0,16.0,92,0.00,,,0.00,Wunderground v.1.15,2013-04-30 06:04:00,
2013-04-29 23:10:00,56.2,53.9,29.83,WSW,247,1.0,1.0,92,0.00,,,0.00,Wunderground v.1.15,2013-04-30 06:10:00,
2013-04-29 23:15:00,56.2,53.9,29.83,SW,236,1.0,16.0,92,0.00,,,0.00,Wunderground v.1.15,2013-04-30 06:15:00,
2013-04-29 23:21:00,56.3,54.0,29.83,WSW,238,1.0,16.0,92,0.00,,,0.00,Wunderground v.1.15,2013-04-30 06:21:00,
2013-04-29 23:26:00,56.3,54.0,29.83,West,268,0.0,16.0,92,0.00,,,0.00,Wunderground v.1.15,2013-04-30 06:26:00,
2013-04-29 23:32:00,56.3,53.7,29.83,West,268,0.0,16.0,91,0.00,,,0.00,Wunderground v.1.15,2013-04-30 06:32:00,
2013-04-29 23:37:00,56.4,53.8,29.84,WSW,247,1.0,16.0,91,0.00,,,0.00,Wunderground v.1.15,2013-04-30 06:37:00,
2013-04-29 23:43:00,56.4,53.8,29.84,WSW,245,1.0,16.0,91,0.00,,,0.00,Wunderground v.1.15,2013-04-30 06:43:00,
2013-04-29 23:48:00,56.3,53.7,29.84,WSW,245,0.0,16.0,91,0.00,,,0.00,Wunderground v.1.15,2013-04-30 06:48:00,
2013-04-29 23:54:00,56.3,53.7,29.84,WSW,245,0.0,16.0,91,0.00,,,0.00,Wunderground v.1.15,2013-04-30 06:54:00,